Regional Weather Roundup
Issued by NWS

Home | Current Version | Previous Version | Graphics & Text | Print | Product List | Glossary On
Versions: 1 2 3 4 5 6 7 8 9 10 11 12 13 14 15 16 17 18 19 20 21 22 23 24 25 26 27 28 29 30 31 32 33 34 35 36 37 38 39 40 41 42 43 44 45 46 47 48 49 50
000
ASUS43 KLMK 270502
RWRKY
KENTUCKY REGIONAL WEATHER ROUNDUP
NATIONAL WEATHER SERVICE LOUISVILLE KY
100 AM EDT TUE JUN 27 2017

NOTE "FAIR" INDICATES FEW OR NO CLOUDS BELOW 12,000 FEET
WITH NO SIGNIFICANT WEATHER AND/OR OBSTRUCTIONS TO VISIBILITY.

KYZ001>023-026-027-061>063-070>075-270600-
WESTERN AND SOUTH CENTRAL KENTUCKY

CITY           SKY/WX    TMP DP  RH WIND       PRES   REMARKS
PADUCAH        CLEAR     64  57  78 CALM      30.11R
HENDERSON      CLOUDY    60  58  92 CALM      30.13R
OWENSBORO      PTCLDY    65  53  65 N3        30.12R
HOPKINSVILLE   CLOUDY    67  56  69 NW3       30.11R
BOWLING GREEN  PTCLDY    66  58  75 CALM      30.11S
GLASGOW        NOT AVBL
$$

KYZ024-025-028>034-038-045-046-053-270600-
NORTH CENTRAL KENTUCKY

CITY           SKY/WX    TMP DP  RH WIND       PRES   REMARKS
LOUISVILLE/SDF MOCLDY    66  47  50 W5        30.11R
LOUISVILLE/LOU PTCLDY    64  50  60 CALM      30.12R
FORT KNOX      PTCLDY    58  52  80 CALM      30.10R
$$

KYZ035>037-039>044-047>052-055>060-089>105-270600-
NORTHEAST KENTUCKY

CITY           SKY/WX    TMP DP  RH WIND       PRES   REMARKS
LEXINGTON      MOCLDY    64  49  57 CALM      30.12R
COVINGTON      PTCLDY    60  49  66 SW5       30.10R
FRANKFORT      MOCLDY    63  50  62 CALM      30.10R
$$

KYZ054-064>069-076>088-106>120-270600-
SOUTHEAST KENTUCKY

CITY           SKY/WX    TMP DP  RH WIND       PRES   REMARKS
JACKSON        CLOUDY    62  52  69 CALM      30.11R
LONDON         CLOUDY    61  54  77 CALM      30.12R
SOMERSET       MOCLDY    61  54  77 CALM      30.13R
MIDDLESBORO    CLOUDY    57  55  92 CALM      30.12F
MONTICELLO     CLOUDY    61  58  90 N10       30.14R
$$





USA.gov is the U.S. government's official web portal to all federal, state and local government web resources and services.